Weather History for KIKK - November, 2012

Change the Weather History Date:

Friday, November 9, 2012

  Actual Average Record
Temperature  
Mean Temperature 46 °F -  
Max Temperature 59 °F 53 °F 75 °F (2006)
Min Temperature 32 °F 33 °F 6 °F (1991)
Degree Days  
Heating Degree Days 20    
Moisture  
Dew Point 41 °F    
Average Humidity 82    
Maximum Humidity 99    
Minimum Humidity 62    
Precipitation  
Precipitation 0.00 in - - ()
Sea Level Pressure  
Sea Level Pressure 30.05 in    
Wind  
Wind Speed 6 mph (SE)    
Max Wind Speed 14 mph    
Max Gust Speed 20 mph    
Visibility 8 miles    
Events      
Averages and records for this station are not official NWS values.
T = Trace of Precipitation, MM = Missing Value Source: NWS Daily Summary

Daily Weather History Graph

Daily Weather History Graph

Search for Another Location

Airport or City:

Trip Planner

Search our weather history database for the weather conditions in past years. The results will help you decide how hot, cold, wet, or windy it might be!

Date:

Astronomy

Nov. 09, 2012 Rise Set
Actual Time 6:32 AM CST 4:37 PM CST
Civil Twilight 6:03 AM CST 5:06 PM CST
Nautical Twilight 5:30 AM CST 5:39 PM CST
Astronomical Twilight 4:58 AM CST 6:11 PM CST
Moon 1:28 AM CST (11/9) 1:52 PM CST (11/9)
Length of Visible Light 11h 03m
Length of Day
10h 05m
Waning Crescent, 23% of the Moon is Illuminated
Nov 9
Waning Crescent
Nov 13
New
Nov 20
First Quarter
Nov 28
Full
Dec 6
Last Quarter

Hourly Weather History & Observations

Time (CST) Temp. Windchill Dew Point Humidity Pressure Visibility Wind Dir Wind Speed Gust Speed Precip Events Conditions
12:15 AM 33.3 °F 30.2 °F 32.2 °F 96% 30.12 in 4.0 mi ESE 3.5 mph - N/A   Clear
12:35 AM 33.4 °F 30.4 °F 32.9 °F 98% 30.11 in 4.0 mi SE 3.5 mph - N/A   Clear
12:55 AM 32.9 °F - 32.4 °F 98% 30.12 in 3.0 mi Calm Calm - N/A   Clear
1:15 AM 33.3 °F - 32.5 °F 97% 30.13 in 3.0 mi Calm Calm - N/A   Clear
1:35 AM 32.7 °F 29.6 °F 32.4 °F 99% 30.13 in 3.0 mi East 3.5 mph - N/A   Clear
1:55 AM 32.2 °F 28.9 °F 32.0 °F 99% 30.13 in 2.5 mi ESE 3.5 mph - N/A   Clear
2:15 AM 33.3 °F 28.9 °F 32.9 °F 99% 30.13 in 3.0 mi SE 4.6 mph - N/A   Clear
2:35 AM 33.6 °F 29.4 °F 32.9 °F 97% 30.12 in 3.0 mi SE 4.6 mph - N/A   Clear
2:55 AM 34.0 °F 28.8 °F 33.3 °F 97% 30.12 in 3.0 mi SE 5.8 mph - N/A   Clear
3:15 AM 34.2 °F 28.2 °F 33.3 °F 97% 30.11 in 3.0 mi ESE 6.9 mph - N/A   Clear
3:35 AM 34.2 °F 29.0 °F 33.3 °F 97% 30.11 in 3.0 mi ESE 5.8 mph - N/A   Clear
3:55 AM 34.0 °F 29.8 °F 33.3 °F 97% 30.12 in 3.0 mi ESE 4.6 mph - N/A   Clear
4:15 AM 34.7 °F 28.8 °F 33.6 °F 96% 30.11 in 3.0 mi ESE 6.9 mph - N/A   Clear
4:35 AM 34.7 °F 29.6 °F 33.8 °F 97% 30.11 in 3.0 mi SE 5.8 mph - N/A   Clear
4:55 AM 34.9 °F 29.0 °F 33.8 °F 96% 30.11 in 4.0 mi SE 6.9 mph - N/A   Clear
5:15 AM 35.1 °F 30.1 °F 34.0 °F 96% 30.11 in 4.0 mi SE 5.8 mph - N/A   Clear
5:35 AM 35.6 °F 30.7 °F 33.8 °F 93% 30.10 in 4.0 mi SE 5.8 mph - N/A   Clear
5:55 AM 34.9 °F 30.8 °F 33.8 °F 96% 30.10 in 4.0 mi SE 4.6 mph - N/A   Clear
6:15 AM 34.7 °F 28.8 °F 33.8 °F 97% 30.10 in 4.0 mi SE 6.9 mph - N/A   Clear
6:35 AM 35.1 °F 29.3 °F 34.0 °F 96% 30.10 in 2.5 mi SE 6.9 mph - N/A   Clear
6:55 AM 35.8 °F 30.9 °F 34.3 °F 94% 30.11 in 3.0 mi SE 5.8 mph - N/A   Clear
7:15 AM 37.4 °F 31.4 °F 35.2 °F 92% 30.11 in 4.0 mi SE 8.1 mph - N/A   Clear
7:35 AM 39.7 °F 34.3 °F 36.5 °F 88% 30.12 in 3.0 mi SSE 8.1 mph - N/A   Scattered Clouds
7:55 AM 41.9 °F 36.9 °F 37.8 °F 85% 30.11 in 5.0 mi SSE 8.1 mph - N/A   Scattered Clouds
8:15 AM 42.6 °F 36.8 °F 38.1 °F 84% 30.10 in 7.0 mi SSE 10.4 mph - N/A   Mostly Cloudy
8:35 AM 44.6 °F 40.2 °F 39.2 °F 81% 30.10 in 7.0 mi South 8.1 mph - N/A   Scattered Clouds
8:55 AM 46.6 °F - 40.5 °F 79% 30.09 in 7.0 mi SSE 8.1 mph - N/A   Clear
9:15 AM 48.6 °F - 41.7 °F 77% 30.08 in 7.0 mi South 9.2 mph - N/A   Clear
9:35 AM 50.2 °F - 42.6 °F 75% 30.08 in 10.0 mi South 13.8 mph 18.4 mph N/A   Clear
9:55 AM 50.9 °F - 42.3 °F 72% 30.08 in 10.0 mi South 12.7 mph 17.3 mph N/A   Clear
10:15 AM 52.0 °F - 42.8 °F 71% 30.07 in 10.0 mi South 13.8 mph 19.6 mph N/A   Clear
10:35 AM 53.2 °F - 43.9 °F 71% 30.07 in 10.0 mi South 12.7 mph - N/A   Clear
10:55 AM 54.1 °F - 43.9 °F 68% 30.07 in 10.0 mi South 11.5 mph - N/A   Clear
11:15 AM 54.9 °F - 44.1 °F 67% 30.06 in 10.0 mi South 13.8 mph - N/A   Clear
11:35 AM 56.3 °F - 44.8 °F 65% 30.06 in 10.0 mi South 10.4 mph - N/A   Clear
11:55 AM 56.8 °F - 44.8 °F 64% 30.04 in 10.0 mi SSE 10.4 mph - N/A   Clear
12:15 PM 57.9 °F - 45.5 °F 63% 30.03 in 10.0 mi SSE 11.5 mph - N/A   Clear
12:35 PM 58.3 °F - 45.3 °F 62% 30.03 in 10.0 mi SSE 9.2 mph - N/A   Clear
12:55 PM 57.9 °F - 45.7 °F 64% 30.03 in 10.0 mi SSW 9.2 mph - N/A   Mostly Cloudy
1:15 PM 57.7 °F - 45.9 °F 65% 30.02 in 10.0 mi South 9.2 mph - N/A   Overcast
1:35 PM 57.6 °F - 45.9 °F 65% 30.01 in 10.0 mi SE 8.1 mph - N/A   Overcast
1:55 PM 58.5 °F - 46.4 °F 64% 30.00 in 10.0 mi SE 10.4 mph - N/A   Overcast
2:15 PM 58.5 °F - 46.2 °F 64% 29.99 in 10.0 mi SSE 9.2 mph - N/A   Overcast
2:35 PM 59.2 °F - 46.9 °F 64% 29.99 in 10.0 mi SSE 10.4 mph - N/A   Overcast
2:55 PM 58.3 °F - 46.4 °F 65% 29.99 in 10.0 mi SSE 10.4 mph - N/A   Scattered Clouds
3:15 PM 58.3 °F - 46.6 °F 65% 29.99 in 10.0 mi SSE 10.4 mph - N/A   Clear
3:35 PM 58.1 °F - 46.6 °F 65% 29.99 in 10.0 mi SSE 8.1 mph - N/A   Clear
3:55 PM 57.4 °F - 46.8 °F 68% 29.99 in 10.0 mi SSE 6.9 mph - N/A   Clear
4:15 PM 56.5 °F - 46.8 °F 70% 29.99 in 10.0 mi ESE 4.6 mph - N/A   Clear
4:35 PM 54.5 °F - 46.4 °F 74% 29.99 in 10.0 mi ESE 4.6 mph - N/A   Clear
4:55 PM 53.2 °F - 46.6 °F 78% 29.99 in 10.0 mi ESE 3.5 mph - N/A   Clear
5:15 PM 52.7 °F - 46.4 °F 79% 30.00 in 10.0 mi ESE 4.6 mph - N/A   Clear
5:35 PM 52.0 °F - 46.4 °F 81% 30.00 in 10.0 mi East 5.8 mph - N/A   Clear
5:55 PM 52.2 °F - 46.6 °F 81% 30.00 in 10.0 mi ESE 4.6 mph - N/A   Mostly Cloudy
6:15 PM 53.6 °F - 46.8 °F 78% 30.00 in 10.0 mi ESE 5.8 mph - N/A   Overcast
6:35 PM 52.9 °F - 46.6 °F 79% 29.99 in 10.0 mi ESE 5.8 mph - N/A   Overcast
6:55 PM 52.9 °F - 46.8 °F 80% 29.99 in 10.0 mi ESE 5.8 mph - N/A   Overcast
7:15 PM 52.3 °F - 46.6 °F 81% 29.99 in 10.0 mi ESE 6.9 mph - N/A   Overcast
7:35 PM 51.6 °F - 46.2 °F 82% 29.99 in 10.0 mi ESE 5.8 mph - N/A   Scattered Clouds
7:55 PM 50.4 °F - 46.0 °F 85% 29.99 in 10.0 mi ESE 5.8 mph - N/A   Clear
8:15 PM 50.0 °F - 45.5 °F 85% 29.99 in 10.0 mi ESE 4.6 mph - N/A   Clear
8:35 PM 49.5 °F - 44.8 °F 84% 30.00 in 10.0 mi ESE 4.6 mph - N/A   Clear
8:55 PM 49.1 °F - 44.6 °F 84% 30.00 in 10.0 mi SE 5.8 mph - N/A   Clear
9:15 PM 48.9 °F - 44.4 °F 84% 30.00 in 10.0 mi SE 5.8 mph - N/A   Clear
9:35 PM 48.6 °F - 44.1 °F 84% 30.00 in 10.0 mi SE 5.8 mph - N/A   Clear
9:55 PM 48.4 °F - 43.7 °F 84% 30.00 in 10.0 mi SE 6.9 mph - N/A   Clear
10:15 PM 48.6 °F - 43.7 °F 83% 30.00 in 10.0 mi SE 6.9 mph - N/A   Clear
10:35 PM 49.1 °F - 43.7 °F 82% 30.00 in 10.0 mi SE 6.9 mph - N/A   Clear
10:55 PM 47.1 °F - 43.2 °F 86% 30.00 in 10.0 mi ESE 5.8 mph - N/A   Clear
11:15 PM 46.6 °F - 43.0 °F 87% 30.00 in 10.0 mi ESE 5.8 mph - N/A   Clear
11:35 PM 46.6 °F - 43.2 °F 88% 30.00 in 10.0 mi ESE 6.9 mph - N/A   Clear
11:55 PM 47.3 °F - 43.7 °F 87% 30.01 in 10.0 mi ESE 5.8 mph - N/A   Clear